Meteopurmerend
purmerend
Purmerend - Baaienwijk



My webcam  My webcam


Onweer radar Meer informatie blitzortung!


Regen radar Meer informatie rain snow radar


Bezoek onze andere website:

CandyAppleRed WebdesignWebdesign Purmerend Candy Apple Red

MeteopurmerendBlog

Template documentation
and downloads



Het weer levert geen direct gevaar op.    Er zijn geen waarschuwingen afgegeven.

15 daagse weersverwachting Esbjerg (DK)

  • Overzicht
  • Per uur
  • 15 dagen
  • Extra
  • Vergelijk
  • Kaarten
  • Dagkaart
  • Meer »
  • Info
  • Statistieken
  • Directe link
    Temp 6h Neerslag Wind  
 05:00     21:48    Daglengte: 16:48 Vandaag
08:00
12°
 
8
14:00
13°
 
9
20:00
12°
 
7
 04:58     21:50    Daglengte: 16:52 Morgen
02:00
11°
0.9 mm
9
08:00
11°
1.1 mm
9
14:00
12°
4.6 mm
10
20:00
11°
3.4 mm
10
 04:57     21:51    Daglengte: 16:54 Zaterdag 28 Mei
02:00
10°
 
10
08:00
10°
 
10
14:00
13°
 
10
20:00
12°
 
8
 04:56     21:53    Daglengte: 16:57 Zondag 29 Mei
02:00
10°
 
6
Locatie info
Region: Syddanmark
Latitude: 55.4653°N
Longitude: 8.4569°E
17 masl
Postcode: 6700
Temp/Neerslag /Baro Onweer/Dauwpunt
    Temp Baro 1h Neerslag Dauwpunt Wind UV Bewolking  
 05:00     21:48    Daglengte: 16:48 Vandaag
07:00
12°
1009.8 hPa
49%
9.0°
8
Windvlaag: 0.9 m/s
34%
08:00
12°
1010.4 hPa
71%
8.0°
8
Windvlaag: 0.7 m/s
13%
09:00
12°
1011.2 hPa
70%
8.5°
8
Windvlaag: 2.5 m/s
13%
10:00
13°
1011.6 hPa
71%
8.6°
8
Windvlaag: 3.5 m/s
35%
11:00
13°
1012.3 hPa
74%
7.4°
9
Windvlaag: 2.8 m/s
29%
12:00
13°
1012.8 hPa
68%
6.8°
9
Windvlaag: 2.7 m/s
30%
13:00
13°
1013.0 hPa
69%
6.7°
9
Windvlaag: 3.2 m/s
25%
14:00
13°
1013.4 hPa
33%
6.5°
9
Windvlaag: 3.2 m/s
10%
15:00
13°
1013.6 hPa
17%
6.4°
9
Windvlaag: 2.9 m/s
8%
16:00
13°
1013.9 hPa
25%
6.5°
9
Windvlaag: 3.1 m/s
8%
17:00
13°
1014.1 hPa
32%
6.0°
9
Windvlaag: 3 m/s
30%
18:00
13°
1013.8 hPa
34%
6.0°
8
Windvlaag: 2.4 m/s
34%
19:00
13°
1013.3 hPa
36%
6.2°
8
Windvlaag: 2.6 m/s
46%
20:00
12°
1012.7 hPa
82%
6.4°
7
Windvlaag: 3.2 m/s
77%
21:00
12°
1012.0 hPa 0.9 mm
82%
7.2°
7
Windvlaag: 4.6 m/s
58%
22:00
12°
1011.7 hPa
68%
8.9°
7
Windvlaag: 5 m/s
44%
23:00
12°
1011.2 hPa
37%
9.9°
7
Windvlaag: 4.8 m/s
46%
 04:58     21:50    Daglengte: 16:52 Morgen
00:00
12°
1010.7 hPa
82%
9.6°
7
Windvlaag: 4.5 m/s
56%
01:00
12°
1010.4 hPa
82%
8.2°
8
Windvlaag: 5 m/s
31%
02:00
11°
1010.0 hPa
81%
7.3°
9
Windvlaag: 4.5 m/s
12%
03:00
11°
1010.2 hPa
28%
7.0°
8
Windvlaag: 1.9 m/s
0%
04:00
11°
1010.4 hPa
22%
6.2°
7
Windvlaag: 0.7 m/s
1%
05:00
10°
1010.4 hPa
30%
6.5°
7
Windvlaag: -0.5 m/s
1%
06:00
11°
1010.5 hPa
35%
7.3°
7
Windvlaag: 1.6 m/s
10%
07:00
11°
1010.2 hPa
79%
6.7°
8
Windvlaag: 0.8 m/s
40%
08:00
11°
1010.3 hPa 1.1 mm
82%
5.2°
9
Windvlaag: 0.9 m/s
76%
09:00
11°
1010.3 hPa 1.6 mm
82%
4.7°
10
Windvlaag: 0.8 m/s
61%
10:00
11°
1010.3 hPa 1.5 mm
82%
5.1°
10
Windvlaag: 1.4 m/s
78%
11:00
11°
1010.5 hPa 1.5 mm
82%
6.0°
10
Windvlaag: 0.9 m/s
43%
12:00
12°
1010.7 hPa
40%
6.7°
10
Windvlaag: 0.1 m/s
33%
13:00
12°
1011.0 hPa
39%
7.5°
10
Windvlaag: -1.2 m/s
10%
14:00
12°
1011.2 hPa
78%
7.5°
10
Windvlaag: -1.3 m/s
13%
15:00
12°
1011.0 hPa
44%
7.2°
10
Windvlaag: -2.2 m/s
12%
16:00
12°
1010.9 hPa
79%
7.9°
10
Windvlaag: -1.9 m/s
10%
17:00
12°
1010.5 hPa
82%
7.5°
10
Windvlaag: -1.5 m/s
34%
18:00
11°
1010.1 hPa 1.6 mm
82%
7.4°
10
Windvlaag: -0.4 m/s
23%
19:00
11°
1010.3 hPa 1.7 mm
79%
6.6°
10
Windvlaag: -0.2 m/s
44%
20:00
11°
1010.4 hPa
70%
6.3°
10
Windvlaag: -0 m/s
11%
21:00
10°
1010.3 hPa
80%
5.5°
10
Windvlaag: -0.4 m/s
50%
22:00
10°
1010.5 hPa
81%
5.1°
10
Windvlaag: -1.2 m/s
11%
23:00
10°
Voelt als: 6.1°
1010.5 hPa
77%
4.5°
9
Windvlaag: -4.7 m/s
18%
 04:57     21:51    Daglengte: 16:54 Zaterdag 28 Mei
00:00
10°
Voelt als: 6.0°
1010.6 hPa
77%
4.8°
9
Windvlaag: -4.3 m/s
15%
01:00
10°
Voelt als: 6.0°
1010.4 hPa
70%
4.8°
9
Windvlaag: -4.9 m/s
19%
02:00
10°
Voelt als: 5.9°
1010.2 hPa
70%
4.9°
10
Windvlaag: -5.3 m/s
39%
03:00
10°
Voelt als: 5.9°
1009.9 hPa
70%
5.2°
10
Windvlaag: -6.8 m/s
32%
04:00
10°
Voelt als: 6.1°
1009.9 hPa
34%
5.1°
10
Windvlaag: -6.9 m/s
46%
05:00
Voelt als: 5.1°
1009.8 hPa
80%
6.3°
10
Windvlaag: -7 m/s
60%
06:00
Voelt als: 5.4°
1010.0 hPa
38%
6.6°
10
Windvlaag: -6.3 m/s
43%
07:00
10°
Voelt als: 5.7°
1009.9 hPa
42%
7.0°
10
Windvlaag: -5.5 m/s
76%
08:00
10°
1010.0 hPa
40%
7.8°
10
Windvlaag: -4.9 m/s
74%
09:00
11°
1010.3 hPa
37%
8.1°
10
Windvlaag: -6.1 m/s
76%
10:00
11°
1010.5 hPa
39%
8.8°
10
Windvlaag: -5.9 m/s
68%
11:00
11°
1010.9 hPa
43%
8.5°
10
Windvlaag: -5.9 m/s
78%
12:00
12°
1011.2 hPa
99%
9.0°
10
Windvlaag: -6.3 m/s
63%
13:00
12°
1011.2 hPa
94%
9.4°
10
Windvlaag: -6.3 m/s
80%
14:00
13°
1011.2 hPa
44%
9.6°
10
Windvlaag: -6.4 m/s
78%
15:00
13°
1011.3 hPa
41%
9.5°
10
Windvlaag: -6 m/s
30%
16:00
13°
1011.3 hPa
40%
9.2°
9
Windvlaag: -5.5 m/s
41%
17:00
13°
1011.2 hPa
33%
8.7°
9
Windvlaag: -5.1 m/s
58%
18:00
12°
1011.2 hPa
29%
8.1°
8
Windvlaag: -4.9 m/s
85%
19:00
12°
1011.2 hPa
35%
8.0°
8
Windvlaag: -4.7 m/s
80%
20:00
12°
1011.3 hPa
36%
8.3°
8
Windvlaag: -4.6 m/s
70%
21:00
11°
1011.4 hPa
76%
7.8°
8
Windvlaag: -4.6 m/s
83%
22:00
10°
1011.6 hPa
34%
8.2°
7
Windvlaag: -4.6 m/s
87%
23:00
10°
1011.5 hPa
22%
8.6°
7
Windvlaag: -4.6 m/s
83%
 04:56     21:53    Daglengte: 16:57 Zondag 29 Mei
00:00
10°
1010.8 hPa
21%
8.6°
7
Windvlaag: 12.8 m/s
45%
01:00
10°
Voelt als: 6.8°
1010.6 hPa
22%
8.2°
7
Windvlaag: 12.4 m/s
63%
02:00
10°
Voelt als: 7.0°
1010.2 hPa
25%
8.2°
6
Windvlaag: 11.8 m/s
69%
03:00
10°
Voelt als: 6.9°
1009.8 hPa
21%
8.0°
6
Windvlaag: 11.5 m/s
42%
04:00
10°
Voelt als: 6.9°
1009.4 hPa
21%
7.9°
6
Windvlaag: 11.2 m/s
17%
05:00
Voelt als: 6.7°
1009.0 hPa
22%
8.1°
6
Windvlaag: 10.8 m/s
43%
06:00
10°
Voelt als: 6.9°
1008.7 hPa
23%
7.8°
6
Windvlaag: 10.3 m/s
59%
Temp/Neerslag /Baro Onweer/Dauwpunt
    Temp Baro Neerslag Dauwpunt Wind Bewolking  
 05:00     21:48    Daglengte: 16:48 Vandaag
08:00
12°
1010.4 hPa   8.0°
8
13%
11:00
13°
1012.3 hPa   7.4°
9
29%
14:00
13°
1013.4 hPa   6.5°
9
10%
17:00
13°
1014.1 hPa   6.0°
9
30%
20:00
12°
1012.7 hPa   6.4°
7
77%
23:00
12°
1011.2 hPa 0.9 mm 9.9°
7
46%
 04:58     21:50    Daglengte: 16:52 Morgen
02:00
11°
1010.0 hPa   7.3°
9
12%
05:00
10°
1010.4 hPa   6.5°
7
1%
08:00
11°
1010.3 hPa 1.1 mm 5.2°
9
76%
11:00
11°
1010.5 hPa 4.6 mm 6.0°
10
43%
14:00
12°
1011.2 hPa   7.5°
10
13%
17:00
12°
1010.5 hPa   7.5°
10
34%
20:00
11°
1010.4 hPa 3.4 mm 6.3°
10
11%
23:00
10°
Voelt als: 6.1°
1010.5 hPa   4.5°
9
18%
 04:57     21:51    Daglengte: 16:54 Zaterdag 28 Mei
02:00
10°
Voelt als: 5.9°
1010.2 hPa   4.9°
10
39%
05:00
Voelt als: 5.1°
1009.8 hPa   6.3°
10
60%
08:00
10°
1010.0 hPa   7.8°
10
74%
11:00
11°
1010.9 hPa   8.5°
10
78%
14:00
13°
1011.2 hPa   9.6°
10
78%
17:00
13°
1011.2 hPa   8.7°
9
58%
20:00
12°
1011.3 hPa   8.3°
8
70%
23:00
10°
1011.5 hPa   8.6°
7
83%
 04:56     21:53    Daglengte: 16:57 Zondag 29 Mei
02:00
10°
Voelt als: 7.0°
1010.2 hPa   8.2°
6
69%
05:00
Voelt als: 6.7°
1009.0 hPa   8.1°
6
43%
08:00
11°
1008.4 hPa   7.2°
6
66%
11:00
11°
1007.2 hPa 11.3 mm 6.3°
10
1%
14:00
11°
1006.4 hPa 11.5 mm 6.8°
9
1%
17:00
11°
1005.6 hPa 11.6 mm 8.0°
9
1%
20:00
11°
1004.8 hPa 11.7 mm 9.1°
8
1%
23:00
11°
1005.1 hPa 11.9 mm 9.1°
9
1%
 04:55     21:54    Daglengte: 16:59 Maandag 30 Mei
02:00
11°
1005.4 hPa 12.1 mm 8.8°
8
1%
05:00
10°
1006.3 hPa 12.3 mm 8.1°
7
1%
08:00
10°
1007.8 hPa 12.4 mm 7.3°
6
1%
11:00
11°
1009.1 hPa 12.4 mm 5.8°
4
1%
14:00
12°
1010.3 hPa 12.4 mm 5.5°
4
1%
17:00
13°
1010.7 hPa 12.5 mm 5.2°
4
1%
20:00
11°
1011.3 hPa 12.5 mm 6.3°
3
1%
23:00
10°
Voelt als: 8.2°
1012.2 hPa 12.5 mm 5.8°
3
1%
 04:54     21:55    Daglengte: 17:01 Dinsdag 31 Mei
02:00
Voelt als: 7.4°
1012.5 hPa 12.5 mm 6.3°
4
1%
05:00
Voelt als: 7.4°
1012.4 hPa 12.5 mm 6.2°
3
0%
08:00
12°
1012.9 hPa 12.5 mm 6.4°
3
0%
11:00
13°
1013.4 hPa 12.6 mm 6.7°
4
0%
14:00
13°
1013.5 hPa 12.7 mm 6.6°
4
0%
17:00
13°
1013.3 hPa 12.7 mm 6.1°
3
0%
20:00
13°
1013.2 hPa 12.7 mm 7.1°
3
0%
23:00
Voelt als: 7.1°
1014.3 hPa 12.7 mm 7.2°
4
0%
 04:53     21:57    Daglengte: 17:04 Woensdag 01 Jun
02:00
Voelt als: 5.7°
1014.0 hPa 12.7 mm 6.5°
3
0%
05:00
Voelt als: 5.3°
1014.8 hPa 12.7 mm 5.7°
3
0%
08:00
11°
1015.7 hPa 12.7 mm 6.1°
3
0%
11:00
14°
1016.3 hPa 12.7 mm 4.6°
1
0%
14:00
15°
1016.6 hPa 12.7 mm 4.9°
2
0%
17:00
16°
1016.8 hPa 12.7 mm 6.1°
2
1%
20:00
15°
1016.4 hPa 12.7 mm 8.9°
2
0%
23:00
12°
1016.5 hPa 12.7 mm 8.6°
4
1%
 04:52     21:58    Daglengte: 17:06 Donderdag 02 Jun
02:00
11°
1016.7 hPa 12.7 mm 6.6°
4
1%
05:00
11°
1016.0 hPa   7.1°
4
1%
08:00
14°
1016.0 hPa 25.4 mm 9.2°
6
1%
14:00
18°
1015.5 hPa 25.4 mm 10.1°
7
1%
20:00
15°
1013.9 hPa 26.4 mm 12.3°
7
1%
 04:51     21:59    Daglengte: 17:08 Vrijdag 03 Jun
02:00
12°
1013.6 hPa 28.3 mm 10.7°
6
1%
08:00
14°
1013.9 hPa 31.0 mm 13.0°
5
1%
14:00
18°
1015.7 hPa 34.2 mm 13.5°
4
0%
20:00
16°
1016.3 hPa 34.9 mm 13.5°
1
1%
 04:50     22:00    Daglengte: 17:10 Zaterdag 04 Jun
02:00
14°
1017.2 hPa 36.3 mm 14.1°
4
1%
08:00
15°
1016.8 hPa 42.5 mm 14.3°
5
1%
14:00
16°
1018.6 hPa 47.8 mm 14.4°
5
1%
20:00
15°
1020.9 hPa 48.2 mm 13.0°
3
0%
 04:49     22:02    Daglengte: 17:13 Zondag 05 Jun
02:00
11°
1016.1 hPa 0.3 mm 8.8°
2
47%
08:00
12°
1015.2 hPa 0.3 mm 9.0°
2
60%
14:00
15°
1015.3 hPa 0.8 mm 9.7°
2
62%
20:00
14°
1014.8 hPa 0.2 mm 9.7°
3
57%
 04:49     22:03    Daglengte: 17:14 Maandag 06 Jun
02:00
11°
1015.0 hPa 0.3 mm 8.7°
2
50%
08:00
13°
1014.6 hPa 0.8 mm 9.4°
2
50%
14:00
15°
1014.8 hPa 0.4 mm 10.0°
2
58%
20:00
14°
1014.1 hPa 0.6 mm 10.2°
2
54%
 04:48     22:04    Daglengte: 17:16 Dinsdag 07 Jun
02:00
12°
1013.8 hPa 0.7 mm 8.9°
2
55%
08:00
13°
1013.2 hPa 0.8 mm 9.4°
2
63%
14:00
15°
1013.0 hPa 0.5 mm 9.9°
3
58%
20:00
14°
1012.3 hPa 0.3 mm 10.4°
3
58%
 04:48     22:05    Daglengte: 17:17 Woensdag 08 Jun
02:00
12°
1012.2 hPa 0.2 mm 9.4°
2
51%
08:00
13°
1011.9 hPa 0.4 mm 10.1°
2
51%
14:00
15°
1012.2 hPa 0.8 mm 10.4°
4
62%
20:00
14°
1011.9 hPa 0.8 mm 10.8°
3
63%
 04:47     22:06    Daglengte: 17:19 Donderdag 09 Jun
02:00
12°
1011.6 hPa 0.3 mm 9.8°
1
64%
08:00
13°
1011.1 hPa 0.8 mm 10.3°
2
72%
14:00
15°
1011.7 hPa 0.7 mm 11.0°
4
75%
20:00
14°
1011.8 hPa 0.8 mm 10.9°
3
61%
 04:46     22:06    Daglengte: 17:20 Vrijdag 10 Jun
02:00
12°
1012.1 hPa 0.5 mm 9.9°
2
54%
  CAPE Lifted Index Hail Supercell Tornado SRH 3km CL BTM PRES CL TOP PRES Swiss DWD icon SMHI TS
 05:00     21:48    Daglengte: 16:48 Vandaag
07:00 96 J/kg 9.1 K 0 % 0 % 0 % 0 m²/s² 0 0 17.23 2
08:00 72 J/kg 9.9 K 0 % 0 % 0 % 0 m²/s² 0 0 18.75 2
09:00 103 J/kg 9.6 K 0 % 0 % 0 % 0 m²/s² 0 0 18.87 2
10:00 128 J/kg 9.3 K 0 % 0 % 0 % 0 m²/s² 0 0 19.08 2
11:00 172 J/kg 8.8 K 0 % 0 % 0 % 0 m²/s² 0 0 19.09 2
12:00 135 J/kg 9.3 K 0 % 0 % 0 % 0 m²/s² 0 0 20.16 2
13:00 105 J/kg 9.8 K 0 % 0 % 0 % 0 m²/s² 0 0 20.66 2
14:00 75 J/kg 10.9 K 0 % 0 % 0 % 0 m²/s² 0 0 21.79 2
15:00 52 J/kg 11.4 K 0 % 0 % 0 % 0 m²/s² 0 0 20.76 2
16:00 46 J/kg 11.3 K 0 % 0 % 0 % 0 m²/s² 0 0 16.85 2
17:00 36 J/kg 11.2 K 0 % 0 % 0 % 0 m²/s² 0 0 14.5 3
18:00 41 J/kg 10.1 K 0 % 0 % 0 % 0 m²/s² 0 0 11.27 3
19:00 58 J/kg 9.0 K 0 % 0 % 0 % 0 m²/s² 0 0 10.23 3
20:00 55 J/kg 7.9 K 0 % 0 % 0 % 0 m²/s² 0 0 9.19 61
21:00 38 J/kg 7.3 K 0 % 0 % 0 % 0 m²/s² 0 0 9.07 61
22:00 44 J/kg 6.0 K 0 % 0 % 0 % 0 m²/s² 0 0 9.33 61
23:00 85 J/kg 4.5 K 0 % 0 % 0 % 0 m²/s² 0 0 11.94 3
 04:58     21:50    Daglengte: 16:52 Morgen
00:00 258 J/kg 2.8 K 0 % 0 % 0 % 0 m²/s² 0 0 7.9 80
01:00 241 J/kg 3.0 K 0 % 0 % 0 % 0 m²/s² 0 0 7.68 80
02:00 246 J/kg 2.6 K 0 % 0 % 0 % 0 m²/s² 0 0 8.24 2
03:00 75 J/kg 4.4 K 0 % 0 % 0 % 0 m²/s² 0 0 8.81 1
04:00 29 J/kg 4.8 K 0 % 0 % 0 % 0 m²/s² 0 0 8.28 1
05:00 88 J/kg 4.0 K 0 % 0 % 0 % 0 m²/s² 0 0 8.23 1
06:00 219 J/kg 2.1 K 0 % 0 % 0 % 0 m²/s² 0 0 5.82 1
07:00 262 J/kg 0.6 K 0 % 0 % 0 % 0 m²/s² 0 0 3.96 2
08:00 248 J/kg 0.1 K 0 % 0 % 0 % 0 m²/s² 0 0 3.19 3
09:00 264 J/kg -0.6 K 0 % 0 % 0 % 0 m²/s² 0 0 0.66 80
10:00 334 J/kg -0.6 K 0 % 0 % 0 % 0 m²/s² 0 0 1.08 80
11:00 330 J/kg -1.0 K 0 % 0 % 0 % 0 m²/s² 0 0 4.22 80
12:00 52 J/kg 0.8 K 0 % 0 % 0 % 0 m²/s² 0 0 4.94 2
13:00 187 J/kg -0.1 K 0 % 0 % 0 % 0 m²/s² 0 0 1.58 1
14:00 143 J/kg 0.6 K 0 % 0 % 0 % 0 m²/s² 0 0 1.8 1
15:00 303 J/kg -0.8 K 0 % 0 % 0 % 0 m²/s² 0 0 0.52 1
16:00 316 J/kg -1.5 K 0 % 0 % 0 % 0 m²/s² 0 0 -1.02 2
17:00 350 J/kg -1.4 K 0 % 0 % 0 % 0 m²/s² 0 0 -0.68 80
18:00 304 J/kg -0.8 K 0 % 0 % 0 % 0 m²/s² 0 0 -0.29 2
19:00 215 J/kg -0.2 K 0 % 0 % 0 % 0 m²/s² 0 0 2.23 2
20:00 232 J/kg -0.6 K 0 % 0 % 0 % 0 m²/s² 0 0 3.42 2
21:00 344 J/kg -1.5 K 0 % 0 % 0 % 0 m²/s² 0 0 0.93 3
22:00 359 J/kg -1.6 K 0 % 0 % 0 % 0 m²/s² 0 0 0.77 2
23:00 76 J/kg -0.2 K 0 % 0 % 0 % 0 m²/s² 0 0 1.15 80
 04:57     21:51    Daglengte: 16:54 Zaterdag 28 Mei
00:00 142 J/kg -0.8 K 0 % 0 % 0 % 0 m²/s² 0 0 1.12 3
01:00 5 J/kg 0.6 K 0 % 0 % 0 % 0 m²/s² 0 0 2.19 3
02:00 27 J/kg 1.2 K 0 % 0 % 0 % 0 m²/s² 0 0 4.44 3
03:00 25 J/kg 1.8 K 0 % 0 % 0 % 0 m²/s² 0 0 6.69 3
04:00 28 J/kg 2.4 K 0 % 0 % 0 % 0 m²/s² 0 0 8.07 2
05:00 26 J/kg 3.2 K 0 % 0 % 0 % 0 m²/s² 0 0 8.15 2
06:00 25 J/kg 3.5 K 0 % 0 % 0 % 0 m²/s² 0 0 6.38 2
07:00 27 J/kg 3.3 K 0 % 0 % 0 % 0 m²/s² 0 0 5.61 2
08:00 47 J/kg 3.1 K 0 % 0 % 0 % 0 m²/s² 0 0 4.57 2
09:00 22 J/kg 4.6 K 0 % 0 % 0 % 0 m²/s² 0 0 5.53 2
10:00 15 J/kg 4.7 K 0 % 0 % 0 % 0 m²/s² 0 0 5.6 2
11:00 16 J/kg 4.6 K 0 % 0 % 0 % 0 m²/s² 0 0 5.74 3
12:00 12 J/kg 4.7 K 0 % 0 % 0 % 0 m²/s² 0 0 5.63 2
13:00 14 J/kg 4.5 K 0 % 0 % 0 % 0 m²/s² 0 0 5.52 3
14:00 14 J/kg 4.3 K 0 % 0 % 0 % 0 m²/s² 0 0 6.01 3
15:00 13 J/kg 4.7 K 0 % 0 % 0 % 0 m²/s² 0 0 7.28 2
16:00 13 J/kg 4.8 K 0 % 0 % 0 % 0 m²/s² 0 0 6.36 3
17:00 11 J/kg 4.4 K 0 % 0 % 0 % 0 m²/s² 0 0 5.84 2
18:00 11 J/kg 4.4 K 0 % 0 % 0 % 0 m²/s² 0 0 5.96 3
19:00 11 J/kg 4.8 K 0 % 0 % 0 % 0 m²/s² 0 0 6.84 3
20:00 6 J/kg 4.9 K 0 % 0 % 0 % 0 m²/s² 0 0 7.63 2
21:00 5 J/kg 4.6 K 0 % 0 % 0 % 0 m²/s² 0 0 7.99 3
22:00 4 J/kg 4.3 K 0 % 0 % 0 % 0 m²/s² 0 0 8.05 3
23:00 2 J/kg 4.4 K 0 % 0 % 0 % 0 m²/s² 0 0 8.75 2
 04:56     21:53    Daglengte: 16:57 Zondag 29 Mei
00:00 0 J/kg 4.6 K 0 % 0 % 0 % 0 m²/s² 0 0 9.4 2
01:00 0 J/kg 4.6 K 0 % 0 % 0 % 0 m²/s² 0 0 9.64 2
02:00 0 J/kg 4.5 K 0 % 0 % 0 % 0 m²/s² 0 0 9.81 3
03:00 0 J/kg 4.6 K 0 % 0 % 0 % 0 m²/s² 0 0 9.61 2
04:00 0 J/kg 4.4 K 0 % 0 % 0 % 0 m²/s² 0 0 8.78 2
05:00 1 J/kg 4.0 K 0 % 0 % 0 % 0 m²/s² 0 0 7.75 3
06:00 3 J/kg 4.1 K 0 % 0 % 0 % 0 m²/s² 0 0 7.58 3
Temp Baro Wind Neerslag
  EWN Forecast EWN WRFDA DWD ICON FMI HIRLAM MET Norway GFS
 05:00     21:48    Daglengte: 16:48 Vandaag
08:00 12.2° 1010.4 hPa 8.2 m/s 0.0 mm 12.0° 1008.0 hPa 8.5 m/s 5.4 mm 12.2° 1010.7 hPa 8.3 m/s -1.9 mm 12.9° 1010.2 hPa 8.4 m/s 0.0 mm 12.1° 1010.0 hPa 9.2 m/s
11:00 12.8° 1012.3 hPa 9.3 m/s 0.0 mm 12.8° 1010.9 hPa 8.6 m/s 8.2 mm 12.4° 1012.7 hPa 8.5 m/s 0.1 mm 13.6° 1012.1 hPa 9.7 m/s 0.0 mm 12.3° 1012.4 hPa 10.7 m/s
14:00 13.3° 1013.4 hPa 9.3 m/s 0.0 mm 13.2° 1012.5 hPa 9.3 m/s 8.5 mm 13.1° 1013.9 hPa 9.3 m/s 0.0 mm 13.3° 1013.2 hPa 9.5 m/s 0.0 mm 12.5° 1013.6 hPa 10.8 m/s
17:00 13.0° 1014.1 hPa 9.0 m/s 0.0 mm 12.7° 1012.7 hPa 9.3 m/s 8.6 mm 12.9° 1014.5 hPa 8.6 m/s 0.0 mm 12.8° 1014.3 hPa 9.1 m/s 0.0 mm 12.3° 1013.6 hPa 10.1 m/s
20:00 12.4° 1012.7 hPa 6.9 m/s 0.0 mm 12.2° 1011.2 hPa 7.7 m/s 8.6 mm 11.8° 1012.5 hPa 7.1 m/s 0.2 mm 12.6° 1013.7 hPa 6.9 m/s 0.0 mm 11.4° 1012.5 hPa 9.4 m/s
23:00 11.9° 1011.2 hPa 6.5 m/s 0.9 mm 10.9° 1009.6 hPa 5.6 m/s 10.6 mm 12.0° 1010.2 hPa 5.2 m/s 0.6 mm 12.5° 1011.6 hPa 10.2 m/s 0.0 mm 11.2° 1010.9 hPa 7.7 m/s
 04:58     21:50    Daglengte: 16:52 Morgen
02:00 11.4° 1010.0 hPa 8.7 m/s 0.0 mm 10.4° 1008.1 hPa 7.4 m/s 13.9 mm 11.5° 1009.8 hPa 9.0 m/s 1.3 mm 11.5° 1011.6 hPa 7.4 m/s 0.0 mm 11.4° 1009.3 hPa 11.2 m/s
05:00 10.5° 1010.4 hPa 6.7 m/s 0.0 mm 8.5° 1008.9 hPa 5.9 m/s 14.0 mm 10.8° 1010.4 hPa 8.2 m/s 0.0 mm 10.8° 1012.0 hPa 6.0 m/s 0.0 mm 9.7° 1010.3 hPa 11.2 m/s
08:00 11.0° 1010.3 hPa 9.1 m/s 1.1 mm 10.9° 1009.0 hPa 10.0 m/s 14.0 mm 10.7° 1010.3 hPa 9.8 m/s 0.2 mm 12.0° 1011.9 hPa 8.9 m/s 0.0 mm 10.6° 1010.4 hPa 11.7 m/s
11:00 11.1° 1010.5 hPa 9.5 m/s 4.6 mm 11.7° 1008.9 hPa 10.9 m/s 14.3 mm 10.8° 1010.8 hPa 9.6 m/s 1.1 mm 12.4° 1011.5 hPa 9.8 m/s 0.0 mm 10.5° 1010.5 hPa 11.3 m/s
14:00 12.1° 1011.2 hPa 10.0 m/s 0.0 mm 12.5° 1009.8 hPa 11.0 m/s 14.4 mm 12.2° 1011.5 hPa 11.1 m/s 0.0 mm 12.5° 1011.6 hPa 9.8 m/s 0.0 mm 11.6° 1011.5 hPa 13.1 m/s
17:00 11.8° 1010.5 hPa 10.4 m/s 0.0 mm 11.2° 1009.5 hPa 11.6 m/s 16.4 mm 11.2° 1011.4 hPa 10.5 m/s 0.6 mm 12.2° 1010.5 hPa 10.3 m/s 0.0 mm 11.1° 1010.7 hPa 13.1 m/s
20:00 10.7° 1010.4 hPa 10.0 m/s 3.4 mm 10.3° 1008.3 hPa 10.1 m/s 21.1 mm 10.9° 1010.8 hPa 9.9 m/s 0.3 mm 10.9° 1011.0 hPa 10.0 m/s 0.0 mm 9.7° 1009.5 hPa 12.2 m/s
23:00 9.8° 1010.5 hPa 9.4 m/s 0.0 mm 8.9° 1008.9 hPa 8.7 m/s 22.2 mm 10.0° 1010.9 hPa 10.5 m/s 0.4 mm 10.8° 1011.6 hPa 9.3 m/s 0.0 mm 9.6° 1009.6 hPa 12.6 m/s
 04:57     21:51    Daglengte: 16:54 Zaterdag 28 Mei
02:00 9.7° 1010.2 hPa 9.7 m/s 0.0 mm 8.8° 1009.5 hPa 9.5 m/s 22.4 mm 9.9° 1010.8 hPa 10.9 m/s 0.1 mm 10.3° 1010.5 hPa 8.3 m/s 0.0 mm 10.0° 1009.5 hPa 13.8 m/s
05:00 9.2° 1009.8 hPa 10.2 m/s 0.0 mm 9.0° 1009.9 hPa 10.1 m/s 22.4 mm 10.2° 1010.8 hPa 10.4 m/s 0.0 mm 10.3° 1009.8 hPa 13.6 m/s
08:00 10.4° 1010.0 hPa 10.3 m/s 0.0 mm 10.2° 1009.9 hPa 10.8 m/s 22.6 mm 10.7° 1011.3 hPa 10.4 m/s 0.0 mm 10.5° 1010.4 hPa 13.6 m/s
11:00 11.3° 1010.9 hPa 9.9 m/s 0.0 mm 10.5° 1010.9 hPa 10.0 m/s 23.2 mm 11.1° 1012.0 hPa 10.2 m/s 0.0 mm 11.7° 1011.2 hPa 13.9 m/s
14:00 12.9° 1011.2 hPa 9.8 m/s 0.0 mm 11.0° 1011.8 hPa 10.4 m/s 23.5 mm 13.0° 1011.2 hPa 10.0 m/s 0.1 mm 11.9° 1012.6 hPa 13.5 m/s
17:00 12.8° 1011.2 hPa 8.8 m/s 0.0 mm 11.6° 1012.2 hPa 10.6 m/s 23.6 mm 12.5° 1011.1 hPa 8.8 m/s 0.0 mm 10.9° 1013.4 hPa 12.5 m/s
20:00 12.0° 1011.3 hPa 7.8 m/s 0.0 mm 10.8° 1012.1 hPa 10.0 m/s 23.6 mm 12.3° 1010.3 hPa 7.3 m/s 0.0 mm 10.6° 1012.8 hPa 12.9 m/s
23:00 10.2° 1011.5 hPa 7.1 m/s 0.0 mm 8.4° 1011.8 hPa 7.2 m/s 23.6 mm 10.6° 1010.6 hPa 7.2 m/s 0.0 mm 10.3° 1012.6 hPa 12.6 m/s
 04:56     21:53    Daglengte: 16:57 Zondag 29 Mei
02:00 9.8° 1010.2 hPa 6.1 m/s 0.0 mm 7.7° 1010.9 hPa 6.9 m/s 23.6 mm 10.4° 1010.0 hPa 5.9 m/s 0.0 mm 9.7° 1011.7 hPa 11.6 m/s
05:00 9.5° 1009.0 hPa 5.6 m/s 0.0 mm 6.9° 1009.8 hPa 6.1 m/s 23.6 mm 10.2° 1008.8 hPa 5.4 m/s 0.0 mm 9.6° 1010.0 hPa 11.0 m/s
08:00 11.1° 1008.4 hPa 5.7 m/s 0.0 mm 8.9° 1009.4 hPa 7.3 m/s 23.6 mm 11.6° 1008.1 hPa 5.3 m/s 0.0 mm 9.5° 1008.7 hPa 10.0 m/s
11:00 10.7° 1007.2 hPa 10.0 m/s 11.3 mm 10.7° 1007.2 hPa 10.0 m/s 11.3 mm
14:00 11.4° 1006.4 hPa 9.3 m/s 11.5 mm 11.4° 1006.4 hPa 9.3 m/s 11.5 mm
17:00 11.3° 1005.6 hPa 8.6 m/s 11.6 mm 11.3° 1005.6 hPa 8.6 m/s 11.6 mm
20:00 11.3° 1004.8 hPa 8.1 m/s 11.7 mm 11.3° 1004.8 hPa 8.1 m/s 11.7 mm
23:00 11.0° 1005.1 hPa 8.8 m/s 11.9 mm 11.0° 1005.1 hPa 8.8 m/s 11.9 mm
 04:55     21:54    Daglengte: 16:59 Maandag 30 Mei
02:00 10.6° 1005.4 hPa 7.9 m/s 12.1 mm 10.6° 1005.4 hPa 7.9 m/s 12.1 mm
05:00 10.3° 1006.3 hPa 6.7 m/s 12.3 mm 10.3° 1006.3 hPa 6.7 m/s 12.3 mm
08:00 10.5° 1007.8 hPa 5.7 m/s 12.4 mm 10.5° 1007.8 hPa 5.7 m/s 12.4 mm
11:00 11.0° 1009.1 hPa 4.5 m/s 12.4 mm 11.0° 1009.1 hPa 4.5 m/s 12.4 mm
14:00 12.3° 1010.3 hPa 4.2 m/s 12.4 mm 12.3° 1010.3 hPa 4.2 m/s 12.4 mm
17:00 12.5° 1010.7 hPa 3.9 m/s 12.5 mm 12.5° 1010.7 hPa 3.9 m/s 12.5 mm
20:00 11.3° 1011.3 hPa 3.3 m/s 12.5 mm 11.3° 1011.3 hPa 3.3 m/s 12.5 mm
23:00 9.8° 1012.2 hPa 3.1 m/s 12.5 mm 9.8° 1012.2 hPa 3.1 m/s 12.5 mm
 04:54     21:55    Daglengte: 17:01 Dinsdag 31 Mei
02:00 9.4° 1012.5 hPa 3.6 m/s 12.5 mm 9.4° 1012.5 hPa 3.6 m/s 12.5 mm
05:00 9.1° 1012.4 hPa 2.9 m/s 12.5 mm 9.1° 1012.4 hPa 2.9 m/s 12.5 mm
08:00 11.6° 1012.9 hPa 3.1 m/s 12.5 mm 11.6° 1012.9 hPa 3.1 m/s 12.5 mm
11:00 12.6° 1013.4 hPa 4.2 m/s 12.6 mm 12.6° 1013.4 hPa 4.2 m/s 12.6 mm
14:00 13.2° 1013.5 hPa 4.0 m/s 12.7 mm 13.2° 1013.5 hPa 4.0 m/s 12.7 mm
17:00 13.4° 1013.3 hPa 3.4 m/s 12.7 mm 13.4° 1013.3 hPa 3.4 m/s 12.7 mm
20:00 12.8° 1013.2 hPa 3.2 m/s 12.7 mm 12.8° 1013.2 hPa 3.2 m/s 12.7 mm
23:00 9.1° 1014.3 hPa 3.5 m/s 12.7 mm 9.1° 1014.3 hPa 3.5 m/s 12.7 mm
 04:53     21:57    Daglengte: 17:04 Woensdag 01 Jun
02:00 7.9° 1014.0 hPa 3.5 m/s 12.7 mm 7.9° 1014.0 hPa 3.5 m/s 12.7 mm
05:00 7.3° 1014.8 hPa 2.9 m/s 12.7 mm 7.3° 1014.8 hPa 2.9 m/s 12.7 mm
08:00 10.7° 1015.7 hPa 3.0 m/s 12.7 mm 10.7° 1015.7 hPa 3.0 m/s 12.7 mm
11:00 14.3° 1016.3 hPa 1.3 m/s 12.7 mm 14.3° 1016.3 hPa 1.3 m/s 12.7 mm
14:00 15.2° 1016.6 hPa 2.3 m/s 12.7 mm 15.2° 1016.6 hPa 2.3 m/s 12.7 mm
17:00 15.6° 1016.8 hPa 2.4 m/s 12.7 mm 15.6° 1016.8 hPa 2.4 m/s 12.7 mm
20:00 15.1° 1016.4 hPa 1.9 m/s 12.7 mm 15.1° 1016.4 hPa 1.9 m/s 12.7 mm
23:00 11.9° 1016.5 hPa 3.5 m/s 12.7 mm 11.9° 1016.5 hPa 3.5 m/s 12.7 mm
 04:52     21:58    Daglengte: 17:06 Donderdag 02 Jun
02:00 11.0° 1016.7 hPa 4.3 m/s 12.7 mm 11.0° 1016.7 hPa 4.3 m/s 12.7 mm
05:00 11.2° 1016.0 hPa 4.2 m/s 12.7 mm 11.2° 1016.0 hPa 4.2 m/s 12.7 mm
08:00 13.7° 1016.0 hPa 5.7 m/s 12.7 mm 13.7° 1016.0 hPa 5.7 m/s 12.7 mm
14:00 18.4° 1015.5 hPa 7.0 m/s 12.7 mm 18.5° 1015.5 hPa 7.0 m/s 12.7 mm
20:00 15.3° 1013.9 hPa 6.6 m/s 13.7 mm 15.3° 1013.9 hPa 6.6 m/s 13.7 mm
 04:51     21:59    Daglengte: 17:08 Vrijdag 03 Jun
02:00 12.1° 1013.6 hPa 6.1 m/s 14.5 mm 12.1° 1013.6 hPa 6.1 m/s 14.5 mm
08:00 14.5° 1013.9 hPa 5.2 m/s 15.8 mm 14.5° 1013.9 hPa 5.2 m/s 15.8 mm
14:00 17.7° 1015.7 hPa 3.7 m/s 17.5 mm 17.7° 1015.7 hPa 3.7 m/s 17.5 mm
20:00 16.2° 1016.3 hPa 1.5 m/s 17.5 mm 16.2° 1016.3 hPa 1.5 m/s 17.5 mm
 04:50     22:00    Daglengte: 17:10 Zaterdag 04 Jun
02:00 14.5° 1017.2 hPa 3.9 m/s 18.8 mm 14.5° 1017.2 hPa 3.9 m/s 18.8 mm
08:00 15.0° 1016.8 hPa 4.6 m/s 22.1 mm 15.0° 1016.8 hPa 4.6 m/s 22.1 mm
14:00 15.7° 1018.6 hPa 5.0 m/s 24.0 mm 15.7° 1018.6 hPa 5.0 m/s 24.0 mm
20:00 15.2° 1020.9 hPa 3.0 m/s 24.1 mm 15.2° 1020.9 hPa 3.0 m/s 24.1 mm
 04:49     22:02    Daglengte: 17:13 Zondag 05 Jun
02:00 11.1° 1016.1 hPa 1.6 m/s 0.3 mm
08:00 12.2° 1015.2 hPa 2.1 m/s 0.3 mm
14:00 14.8° 1015.3 hPa 2.0 m/s 0.8 mm
20:00 13.8° 1014.8 hPa 2.8 m/s 0.2 mm
 04:49     22:03    Daglengte: 17:14 Maandag 06 Jun
02:00 11.3° 1015.0 hPa 1.7 m/s 0.3 mm
08:00 12.8° 1014.6 hPa 1.5 m/s 0.8 mm
14:00 15.3° 1014.8 hPa 2.4 m/s 0.4 mm
20:00 14.1° 1014.1 hPa 2.5 m/s 0.6 mm
 04:48     22:04    Daglengte: 17:16 Dinsdag 07 Jun
02:00 11.7° 1013.8 hPa 1.7 m/s 0.7 mm
08:00 12.8° 1013.2 hPa 1.8 m/s 0.8 mm
14:00 14.9° 1013.0 hPa 3.4 m/s 0.5 mm
20:00 14.3° 1012.3 hPa 2.7 m/s 0.3 mm
 04:48     22:05    Daglengte: 17:17 Woensdag 08 Jun
02:00 11.8° 1012.2 hPa 1.8 m/s 0.2 mm
08:00 13.2° 1011.9 hPa 2.0 m/s 0.4 mm
14:00 15.3° 1012.2 hPa 4.0 m/s 0.8 mm
20:00 14.3° 1011.9 hPa 3.2 m/s 0.8 mm
 04:47     22:06    Daglengte: 17:19 Donderdag 09 Jun
02:00 12.4° 1011.6 hPa 1.0 m/s 0.3 mm
08:00 13.5° 1011.1 hPa 1.5 m/s 0.8 mm
14:00 15.2° 1011.7 hPa 3.8 m/s 0.7 mm
20:00 14.0° 1011.8 hPa 3.3 m/s 0.8 mm
 04:46     22:06    Daglengte: 17:20 Vrijdag 10 Jun
02:00 12.4° 1012.1 hPa 2.1 m/s 0.5 mm
FMI Hirlam - 7.5 km EWN WRFDA - 12 km DWD ICON - 7 km GFS - 25 km Basiskaart






























































Updatetijd (Europe/Amsterdam) Resolutie Lengte Stap
FMI Hirlam 01:45, 07:45, 13:45, 19:45 7.5 km 49h 1h
EWN WRFDA 04:15, 10:15, 16:15, 22:15 12 km 73h 1h
DWD ICON 05:45, 11:45, 17:45, 23:45 7 km 75h 1h
GFS 02:15, 08:15, 14:15, 20:15 25 km 237h 3h
30+ mm
25-30 mm
20-25 mm
15-20 mm
10-15 mm
6-10 mm
4-6 mm
2-4 mm
1-2 mm
0.5-1 mm
0.2-0.5 mm
0.1-0.2 mm
30+ mm
25-30 mm
20-25 mm
15-20 mm
10-15 mm
6-10 mm
4-6 mm
2-4 mm
1-2 mm
0.5-1 mm
0.2-0.5 mm
0.1-0.2 mm
Sneeuwval
Natte sneeuw
Hagel
Vorst
30+ mm
25-30 mm
20-25 mm
15-20 mm
10-15 mm
6-10 mm
4-6 mm
2-4 mm
1-2 mm
0.5-1 mm
0.2-0.5 mm
0.1-0.2 mm
Sneeuwval
Natte sneeuw
Hagel
Vorst
Onweer
50 mm
40 mm
30 mm
26 mm
22 mm
18 mm
14 mm
10 mm
9 mm
8 mm
7 mm
6 mm
5 mm
4.5 mm
4 mm
3.5 mm
3 mm
2.5 mm
2 mm
1.5 mm
1 mm
0.8 mm
0.6 mm
0.4 mm
0.2 mm
0.05 mm
35°
30°
25°
20°
15°
10°
-5°
-10°
-15°
-20°
-25°
-30°
-35°
33> m/s
29 m/s
25 m/s
21 m/s
17 m/s
14 m/s
11 m/s
8 m/s
5 m/s
3 m/s
0 m/s
2600 J/kg
2400 J/kg
2200 J/kg
2000 J/kg
1800 J/kg
1600 J/kg
1400 J/kg
1200 J/kg
1000 J/kg
800 J/kg
600 J/kg
400 J/kg
200 J/kg
70 dBZ
65 dBZ
60 dBZ
55 dBZ
50 dBZ
45 dBZ
40 dBZ
35 dBZ
30 dBZ
25 dBZ
20 dBZ
15 dBZ
10 dBZ
5 dBZ
-1 K
-2 K
-3 K
-4 K
-5 K
-6 K
-7 K
-8 K
-9 K
950 m²/s²
900 m²/s²
850 m²/s²
800 m²/s²
750 m²/s²
700 m²/s²
650 m²/s²
600 m²/s²
550 m²/s²
500 m²/s²
450 m²/s²
400 m²/s²
350 m²/s²
300 m²/s²
250 m²/s²
200 m²/s²
150 m²/s²
100 m²/s²
46 m/s
44 m/s
42 m/s
40 m/s
38 m/s
36 m/s
34 m/s
32 m/s
30 m/s
28 m/s
26 m/s
24 m/s
22 m/s
20 m/s
16 m/s
12 m/s
8 m/s
4 m/s
30 m/s
28 m/s
26 m/s
24 m/s
22 m/s
20 m/s
18 m/s
16 m/s
14 m/s
12 m/s
10 m/s
8 m/s
6 m/s
4 m/s
2 m/s
3.0
2.8
2.6
2.4
2.2
2.0
1.8
1.6
1.4
1.2
1.0
0.8
0.6
0.4
0.2
15
14
13
12
11
10
9
8
7
6
5
4
3
2
1
90%
80%
70%
60%
50%
40%
30%
20%
10%
42
40
38
36
34
32
30
28
26
24
22
20
18
16
14
12
90+ cm
80-90 cm
70-80 cm
60-70 cm
50-60 cm
40-50 cm
30-40 cm
20-30 cm
10-20 cm
1-10 cm
Sneeuwval
Natte sneeuw
Regen
>120 mm
115 mm
110 mm
105 mm
100 mm
95 mm
90 mm
85 mm
80 mm
75 mm
70 mm
65 mm
60 mm
55 mm
50 mm
45 mm
45 mm
40 mm
35 mm